Regional Weather Roundup
Issued by NWS

Home | Current Version | Previous Version | Text Only | Print | Product List | Glossary Off
Versions: 1 2 3 4 5 6 7 8 9 10 11 12 13 14 15 16 17 18 19 20 21 22 23 24 25 26 27 28 29 30 31 32 33 34 35 36 37 38 39 40 41 42 43 44 45 46 47 48 49 50

000
ASUS43 KMKX 211211
RWRWI

WISCONSIN REGIONAL WEATHER ROUNDUP
NATIONAL WEATHER SERVICE MILWAUKEE/SULLIVAN WI
700 AM CDT MON APR 21 2014

NOTE: "FAIR" INDICATES FEW OR NO CLOUDS BELOW 12,000 FEET WITH NO
SIGNIFICANT WEATHER AND/OR OBSTRUCTIONS TO VISIBILITY.

WIZ001-002-006>008-014>016-023>028-211300-
NORTHWEST WISCONSIN

CITY           SKY/WX    TMP DP  RH WIND       PRES   REMARKS
SUPERIOR ARPT  PTCLDY    35  32  90 CALM      29.89F
6HR MIN TEMP:  29; 6HR MAX TEMP:  35;

ASHLAND        MOCLDY    35  31  85 SW5       29.89R WCI  31
6HR MIN TEMP:  30; 6HR MAX TEMP:  38;

HAYWARD        CLOUDY    38  35  89 CALM      29.90R FOG
6HR MIN TEMP:  33; 6HR MAX TEMP:  38;

SIREN          MOCLDY    48  45  89 CALM      29.90F
6HR MIN TEMP:  39; 6HR MAX TEMP:  51;

RICE LAKE      FOG       51  50  97 SE6       29.90R VSB 1/4
6HR MIN TEMP:  45; 6HR MAX TEMP:  51;

LADYSMITH      CLOUDY    50  49  97 CALM      29.90F FOG
6HR MIN TEMP:  46; 6HR MAX TEMP:  50;

EAU CLAIRE     FOG       51  51 100 CALM      29.89R VSB 1/4
6HR MIN TEMP:  50; 6HR MAX TEMP:  55; 6HR PCP: TRACE;

MENOMONIE      CLOUDY    52  51  98 SE7       29.88S FOG
6HR MIN TEMP:  51; 6HR MAX TEMP:  54; 6HR PCP:  0.02;

NEW RICHMOND   CLOUDY    53  53 100 CALM      29.91R FOG
6HR MIN TEMP:  52; 6HR MAX TEMP:  57;

OSCEOLA        CLOUDY    52  52  99 NW7       29.94R
6HR MIN TEMP:  49; 6HR MAX TEMP:  54;

$$

WIZ003>005-009-010-017-018-211300-
NORTH CENTRAL WISCONSIN

CITY           SKY/WX    TMP DP  RH WIND       PRES   REMARKS
WOODRUFF       HAZE      39  34  83 CALM      29.90F VSB<1/4
6HR MIN TEMP:  37; 6HR MAX TEMP:  40;

RHINELANDER    FOG       39  39 100 CALM      29.91F VSB<1/4
6HR MIN TEMP:  39; 6HR MAX TEMP:  43;

EAGLE RIVER    FOG       36  36 100 CALM      29.90F VSB<1/4
6HR MIN TEMP:  32; 6HR MAX TEMP:  36;

LAND O LAKES   FOG       32  31  98 CALM      29.91F VSB<1/4
6HR MIN TEMP:  29; 6HR MAX TEMP:  32;

PHILLIPS       FOG       44  44 100 CALM      29.88F VSB<1/4
6HR MIN TEMP:  37; 6HR MAX TEMP:  45;

TOMAHAWK       FOG       40  39  97 CALM      29.90F VSB<1/4
6HR MIN TEMP:  38; 6HR MAX TEMP:  41;

MEDFORD        FOG       50  50 100 CALM      29.90S VSB<1/4
6HR MIN TEMP:  47; 6HR MAX TEMP:  51;

MERRILL        FOG       44  44 100 CALM      29.90F VSB<1/4
6HR MIN TEMP:  44; 6HR MAX TEMP:  49;

$$

WIZ029-030-035-036-043>047-211300-
CENTRAL WISCONSIN

CITY           SKY/WX    TMP DP  RH WIND       PRES   REMARKS
WAUSAU         FOG       49  49 100 CALM      29.89F VSB<1/4
6HR MIN TEMP:  47; 6HR MAX TEMP:  53; 6HR PCP: TRACE;

MOSINEE        FOG       48  48 100 E3        29.91F VSB 1/4
MARSHFIELD     FOG       50  49  96 CALM      29.90F VSB<1/4
6HR MIN TEMP:  50; 6HR MAX TEMP:  54;

STEVENS POINT  CLOUDY    49  49 100 CALM      29.90F FOG
6HR MIN TEMP:  48; 6HR MAX TEMP:  51; 6HR PCP:  0.02;

WAUPACA        FOG       54  52  94 CALM      29.92S VSB 1/4
WAUTOMA        MOCLDY    52  52 100 NE6       29.88F FOG
6HR MIN TEMP:  51; 6HR MAX TEMP:  53; 6HR PCP:  0.04;

WISC RAPIDS    CLOUDY    52  52 100 CALM      29.92R FOG
6HR MIN TEMP:  51; 6HR MAX TEMP:  56; 6HR PCP:  0.03;

CAMP DOUGLAS   CLOUDY    54  54 100 S3        29.92R
                                      6HR PCP:  0.08;

$$

WIZ011>013-019>022-031-037>040-048>050-211300-
NORTHEAST WISCONSIN

CITY           SKY/WX    TMP DP  RH WIND       PRES   REMARKS
ANTIGO         FOG       42  42 100 CALM      29.91F VSB<1/4
6HR MIN TEMP:  41; 6HR MAX TEMP:  48;

STURGEON BAY   CLOUDY    43  39  87 N3        29.93S
6HR MIN TEMP:  43; 6HR MAX TEMP:  48;

GREEN BAY      FOG       48  48 100 S6        29.92S VSB 1/2
6HR MIN TEMP:  48; 6HR MAX TEMP:  51; 6HR PCP:  0.02;

MANITOWOC      LGT RAIN  49  44  83 N3        29.92S
6HR MIN TEMP:  43; 6HR MAX TEMP:  49; 6HR PCP: TRACE;

APPLETON       CLOUDY    50  48  93 CALM      29.92F FOG
CLINTONVILLE   DRZL/FOG  50  50 100 CALM      29.91F VSB 1/2
OSHKOSH        MOCLDY    49  47  93 CALM      29.91F FOG
6HR MIN TEMP:  48; 6HR MAX TEMP:  51; 6HR PCP: TRACE;

$$

WIZ032>034-041-042-053>061-211300-
SOUTHWEST WISCONSIN

CITY           SKY/WX    TMP DP  RH WIND       PRES   REMARKS
LA CROSSE      LGT RAIN  54  53  97 S5        29.91S FOG
6HR MIN TEMP:  53; 6HR MAX TEMP:  57; 6HR PCP: TRACE;

SPARTA         FOG       52  50  93 S3        29.93R VSB<1/4
VIROQUA        FAIR      53  53 100 N3        29.93S
6HR MIN TEMP:  53; 6HR MAX TEMP:  58; 6HR PCP:  0.07;

BOSCOBEL       CLOUDY    54  53  97 N3        29.92S FOG
6HR MIN TEMP:  51; 6HR MAX TEMP:  57;

PRAIRIE DU CHI FOG       52  51  97 CALM      29.91F VSB 1/4
6HR MIN TEMP:  51; 6HR MAX TEMP:  56; 6HR PCP:  0.03;

PLATTEVILLE    FAIR      55  50  85 CALM      29.92S
6HR MIN TEMP:  53; 6HR MAX TEMP:  62;

$$

WIZ056-057-062-063-064-067-068-211300-
SOUTH CENTRAL WISCONSIN

CITY           SKY/WX    TMP DP  RH WIND       PRES   REMARKS
BARABOO/DELLS  CLOUDY    53  51  92 CALM      29.92R FOG
6HR MIN TEMP:  51; 6HR MAX TEMP:  55; 6HR PCP:  0.01;

LONE ROCK      MOCLDY    53  52  96 N5        29.92S FOG
6HR MIN TEMP:  52; 6HR MAX TEMP:  56; 6HR PCP: TRACE;

WATERTOWN      PTCLDY    51  48  90 CALM      29.92F
6HR MIN TEMP:  51; 6HR MAX TEMP:  61;

MADISON        MOCLDY    54  50  86 CALM      29.92F
6HR MIN TEMP:  52; 6HR MAX TEMP:  61; 6HR PCP:  0.01;

MIDDLETON      FAIR      55  50  82 NW5       29.93R
6HR MIN TEMP:  54; 6HR MAX TEMP:  63;

MONROE         CLOUDY    58  46  64 S7        29.91F
6HR MIN TEMP:  57; 6HR MAX TEMP:  63;

JANESVILLE     CLOUDY    61  45  55 S6        29.92F
$$

WIZ051-052-058>065-066-070>072-211300-
SOUTHEAST WISCONSIN

CITY           SKY/WX    TMP DP  RH WIND       PRES   REMARKS
MILWAUKEE      CLOUDY    61  47  59 S8        29.92F
6HR MIN TEMP:  58; 6HR MAX TEMP:  64; 6HR PCP: TRACE;

WAUKESHA       CLEAR     54  48  82 W9        29.95R
MILWAUKEE/TIMM CLEAR     61  46  59 SW5       29.93R
RACINE         CLOUDY    61  45  55 SW9       29.94F
6HR MIN TEMP:  55; 6HR MAX TEMP:  64; 6HR PCP: TRACE;

BURLINGTON     CLOUDY    56  46  69 SW7       29.93F
6HR MIN TEMP:  51; 6HR MAX TEMP:  60;

KENOSHA        CLOUDY    60  45  57 SW5       29.93F
6HR MIN TEMP:  59; 6HR MAX TEMP:  63; 6HR PCP: TRACE;

FOND DU LAC    MOCLDY    50  46  86 CALM      29.91F FOG
6HR MIN TEMP:  48; 6HR MAX TEMP:  51; 6HR PCP: TRACE;

SHEBOYGAN      MOCLDY    52  46  80 W5        29.92F
6HR MIN TEMP:  43; 6HR MAX TEMP:  53; 6HR PCP: TRACE;

WEST BEND      MOCLDY    55  45  67 SW5       29.92F
JUNEAU         MOCLDY    55  48  77 S7        29.93F
6HR MIN TEMP:  53; 6HR MAX TEMP:  58;

$$

LSZ147-162-211300-
LAKE SUPERIOR

STATION/POSITION TIME  TEMP    WIND        PRES    WAVE
                       AIR SEA DIR/SP/G            HT/PER
                 (UTC) (F)     (DEG/KT/KT) (MB)    (FT/S)
DEVILS ISLAND    1200   42     320/  4/  5 1012.5R
PORT WING        1100   32      CALM  /  9 1012.9
SAXON HARBOR     1100             CALM     1011.5F
$$

LMZ867-665-643>646-211300-
LAKE MICHIGAN

STATION/POSITION TIME  TEMP    WIND        PRES    WAVE
                       AIR SEA DIR/SP/G            HT/PER
                 (UTC) (F)     (DEG/KT/KT) (MB)    (FT/S)
NORTHPORT PIER   1100   38     150/  1/  1 1013.5
SISTER BAY       1109   34        CALM       N/A
KEWAUNEE LAKESHO 1100   44      CALM  /  5 1014.2R
SHEBOYGAN LAKESH 1200   48     350/  6/  7 1013.5F
PORT WASHINGTON  1100   53     340/  2/  6 1013.9
MILWAUKEE LAKESH 1100   62     200/  6/  7   N/A
KENOSHA   LAKESH 1200   56     190/  7/  7   N/A
$$

TC  - TEMPERATURE IN CELSIUS
VSB - VISIBILITY IN STATUTE MILES
WCI - WIND CHILL INDEX
HX  - HEAT INDEX




USA.gov is the U.S. government's official web portal to all federal, state and local government web resources and services.